Location: Newark
(53.3333°N, 83.7500°E)
Time: 20:14:47
(UTC+00:00)

Explorer 7 - All Passes

Search period start: 13 November 2019 00:00
Search period end: 23 November 2019 00:00
Orbit: 485 x 680 km, 50.3° (Epoch: 13 November)

Date Brightness Start Highest point End Pass type
(mag) Time Alt. Az. Time Alt. Az. Time Alt. Az.
13 Nov - 00:30:28 10° W 00:34:27 51° S 00:38:12 10° ESE visible
13 Nov - 02:11:13 10° W 02:14:24 23° SSW 02:17:29 10° SSE daylight
13 Nov - 19:38:11 10° SSE 19:39:16 11° SE 19:40:20 10° ESE night (unlit)
13 Nov - 21:15:04 10° SW 21:18:57 32° SSE 21:22:38 10° E visible
13 Nov - 22:54:57 10° WSW 22:59:05 55° S 23:03:00 10° E visible
14 Nov - 00:35:25 10° W 00:39:19 44° SSW 00:43:01 10° ESE visible
14 Nov - 02:16:28 10° WSW 02:19:08 17° SW 02:21:43 10° S daylight
14 Nov - 19:41:17 10° S 19:43:56 16° SE 19:46:31 10° ESE night (unlit)
14 Nov - 21:19:42 10° SW 21:23:47 40° SSE 21:27:39 10° E visible
14 Nov - 22:59:51 10° W 23:04:01 57° S 23:07:55 10° ESE visible
15 Nov - 00:40:24 10° W 00:44:10 36° SSW 00:47:45 10° SE visible
15 Nov - 02:22:08 10° WSW 02:23:48 12° SW 02:25:26 10° SSW daylight
15 Nov - 19:45:16 10° SSW 19:48:40 21° SSE 19:51:55 10° E night (unlit)
15 Nov - 21:24:27 10° WSW 21:28:39 47° SSE 21:32:36 10° E visible
15 Nov - 23:04:46 10° W 23:08:55 55° S 23:12:49 10° ESE visible
16 Nov - 00:45:26 10° W 00:48:58 29° SSW 00:52:22 10° SE visible
16 Nov - 19:49:36 10° SSW 19:53:26 28° SSE 19:57:05 10° E night (unlit)
16 Nov - 21:29:16 10° WSW 21:33:32 54° S 21:37:33 10° E visible
16 Nov - 23:09:43 10° W 23:13:48 50° SSW 23:17:40 10° ESE visible
17 Nov - 00:50:33 10° W 00:53:44 22° SSW 00:56:47 10° SSE visible
17 Nov - 18:16:26 10° SSE 18:18:29 13° SE 18:20:31 10° ESE night (unlit)
17 Nov - 19:54:08 10° SW 19:58:15 35° SSE 20:02:08 10° E night (unlit)
17 Nov - 21:34:09 10° WSW 21:38:27 57° S 21:42:28 10° E visible
17 Nov - 23:14:40 10° W 23:18:40 43° SSW 23:22:26 10° SE visible
18 Nov - 00:55:52 10° WSW 00:58:26 16° SW 01:00:55 10° S visible
18 Nov - 18:20:03 10° S 18:23:11 18° SE 18:26:12 10° E night (unlit)
18 Nov - 19:58:48 10° SW 20:03:05 43° SSE 20:07:07 10° E night (unlit)
18 Nov - 21:39:03 10° W 21:43:21 58° S 21:47:22 10° ESE visible
18 Nov - 23:19:39 10° W 23:23:30 35° SSW 23:27:08 10° SE visible
19 Nov - 01:01:45 10° WSW 01:03:05 11° SW 01:04:24 10° SSW visible
19 Nov - 18:24:11 10° SSW 18:27:55 24° SSE 18:31:28 10° E night (unlit)
19 Nov - 20:03:35 10° WSW 20:07:57 51° SSE 20:12:05 10° E night (unlit)
19 Nov - 21:43:58 10° W 21:48:15 55° S 21:52:16 10° ESE visible
19 Nov - 23:24:42 10° W 23:28:17 27° SSW 23:31:42 10° SSE visible
20 Nov - 16:52:16 10° SE 16:53:03 10° SE 16:53:48 10° SE night (unlit)
20 Nov - 18:28:36 10° SW 18:32:41 31° SSE 18:36:34 10° E night (unlit)
20 Nov - 20:08:25 10° WSW 20:12:51 56° S 20:17:00 10° E night (unlit)
20 Nov - 21:48:55 10° W 21:53:08 49° SSW 21:57:05 10° ESE visible
20 Nov - 23:29:51 10° W 23:33:02 21° SW 23:36:04 10° SSE visible
21 Nov - 16:55:00 10° S 16:57:41 15° SE 17:00:19 10° ESE night (unlit)
21 Nov - 18:33:11 10° SW 18:37:30 39° SSE 18:41:36 10° E night (unlit)
21 Nov - 20:13:18 10° WSW 20:17:45 59° S 20:21:55 10° E night (unlit)
21 Nov - 21:53:52 10° W 21:57:59 41° SSW 22:01:51 10° SE visible
21 Nov - 23:35:14 10° WSW 23:37:42 15° SW 23:40:05 10° S visible
22 Nov - 16:58:53 10° SSW 17:02:22 21° SE 17:05:46 10° E night (unlit)
22 Nov - 18:37:54 10° WSW 18:42:22 47° SSE 18:46:34 10° E night (unlit)
22 Nov - 20:18:13 10° W 20:22:39 58° S 20:26:49 10° ESE night (unlit)
22 Nov - 21:58:52 10° W 22:02:48 33° SSW 22:06:31 10° SE visible
22 Nov - 23:41:28 10° WSW 23:42:19 11° SW 23:43:10 10° SSW visible
